CST,Max TemperatureF,Mean TemperatureF,Min TemperatureF,Max Dew PointF,MeanDew PointF,Min DewpointF,Max Humidity, Mean Humidity, Min Humidity, Max Sea Level PressureIn, Mean Sea Level PressureIn, Min Sea Level PressureIn, Max VisibilityMiles, Mean VisibilityMiles, Min VisibilityMiles, Max Wind SpeedMPH, Mean Wind SpeedMPH, Max Gust SpeedMPH,PrecipitationIn, CloudCover, Events, WindDirDegrees
2014-1-1,1,-2,-4,-6,-8,-11,78,70,66,30.36,30.30,30.23,10,9,2,17,13,18,0.00,7,Rain-Snow,23
2014-1-2,1,-6,-14,-6,-14,-22,78,70,60,30.43,30.38,30.32,10,10,8,12,8,15,0.00,2,Rain,353
2014-1-3,26,6,-13,23,7,-20,86,76,65,30.33,29.83,29.50,10,7,1,41,20,47,0.00,3,Snow,183
2014-1-4,33,17,1,30,9,-6,87,75,66,30.19,29.89,29.50,10,9,2,30,18,39,0.00,6,Rain-Snow,330
2014-1-5,1,-6,-14,-8,-17,-29,66,58,46,30.36,30.30,30.18,10,10,6,33,19,40,0.00,4,Rain,336
2014-1-6,-5,-12,-18,-18,-24,-29,65,57,53,30.34,30.28,30.18,10,10,6,25,18,32,0.00,4,,299
2014-1-7,12,2,-9,0,-8,-18,72,64,48,30.22,30.13,30.06,10,10,9,12,7,,0.00,5,Snow,14
2014-1-8,8,2,-4,0,-5,-11,78,70,62,30.41,30.35,30.23,10,10,9,9,5,,0.00,2,,28
2014-1-9,24,12,1,18,7,-6,93,78,67,30.36,30.13,29.88,10,8,1,21,13,25,0.00,4,,165
2014-1-10,32,26,19,32,27,18,100,98,93,29.90,29.66,29.51,3,1,0,22,14,32,0.02,8,Fog-Snow,185
2014-1-11,32,22,12,30,22,10,100,93,86,29.75,29.64,29.50,10,6,0,20,10,26,0.00,4,Fog,271
2014-1-12,37,29,21,34,30,19,93,83,75,29.65,29.49,29.40,10,10,9,25,15,31,0.00,2,,226
2014-1-13,39,34,30,32,27,21,87,75,56,29.75,29.65,29.52,10,10,8,21,12,31,0.00,4,,275
2014-1-14,37,24,12,34,17,5,93,73,62,30.13,29.86,29.47,10,9,2,36,22,51,0.01,7,Rain-Snow,320
2014-1-15,30,20,10,23,9,3,80,68,46,30.14,29.92,29.54,10,9,1,25,15,32,0.00,6,Rain-Snow,246
2014-1-16,35,20,6,32,14,-4,93,72,57,29.90,29.66,29.48,10,8,2,37,20,48,0.00,7,Rain-Snow,317
2014-1-17,21,11,1,9,1,-6,79,66,53,30.02,29.95,29.74,10,10,9,26,17,36,0.00,3,Snow,317
2014-1-18,35,22,10,32,16,3,100,80,49,29.98,29.70,29.44,10,8,1,24,16,33,0.00,5,Rain-Snow,287
2014-1-19,50,34,17,34,25,14,93,78,50,29.84,29.66,29.52,10,10,10,24,15,33,0.00,1,,265
2014-1-20,32,15,-2,28,18,-9,100,87,61,30.37,29.98,29.75,10,6,0,30,10,39,0.00,4,Rain-Snow,328
2014-1-21,12,0,-11,5,-9,-20,79,68,59,30.41,30.23,29.96,10,10,3,18,13,29,0.00,3,,220
2014-1-22,15,4,-7,9,-3,-17,85,70,60,30.47,30.13,29.93,10,8,2,32,17,46,0.00,6,Rain-Snow,323
2014-1-23,5,-3,-11,-4,-12,-18,72,67,59,30.70,30.56,30.27,10,9,5,18,14,28,0.00,4,,300
2014-1-24,37,21,5,36,17,-8,93,70,52,30.24,29.78,29.55,10,10,3,29,20,38,0.00,5,,252
2014-1-25,33,22,10,28,4,-8,87,57,35,29.96,29.78,29.39,10,9,1,32,19,43,0.00,4,Snow,310
2014-1-26,35,16,-4,32,12,-13,93,75,60,30.14,29.62,29.31,10,5,0,37,20,52,0.01,7,Rain-Snow,317
2014-1-27,0,-4,-9,-13,-16,-20,77,61,54,30.41,30.34,30.14,10,9,1,26,17,38,0.00,5,Snow,316
2014-1-28,8,-2,-11,-6,-12,-18,71,62,44,30.37,30.27,30.13,10,10,10,21,9,25,0.00,0,,270
2014-1-29,37,18,-2,14,3,-11,67,55,33,30.12,29.86,29.56,10,10,10,30,14,39,0.05,0,,202
2014-1-30,33,16,0,28,10,-6,100,71,41,30.07,29.68,29.33,10,7,0,32,18,44,0.03,5,Rain-Snow,288
2014-1-31,12,6,0,5,-2,-6,79,69,57,30.15,30.07,29.99,10,10,9,12,6,,0.00,1,,194